Change the Weather History Date:

Tuesday, November 6, 2012

  Actual Average Record
Temperature  
Mean Temperature 76 °F -  
Max Temperature 84 °F 57 °F 84 °F (2012)
Min Temperature 67 °F 47 °F 44 °F (2006)
Cooling Degree Days 10    
Growing Degree Days 26 (Base 50)    
Moisture  
Dew Point 45 °F    
Average Humidity 35    
Maximum Humidity 73    
Minimum Humidity 14    
Precipitation  
Precipitation 0.00 in - - ()
Sea Level Pressure  
Sea Level Pressure 29.89 in    
Wind  
Wind Speed 11 mph ()    
Max Wind Speed 23 mph    
Max Gust Speed 29 mph    
Visibility 6.8 miles    
Events      
Averages and records for this station are not official NWS values.
T = Trace of Precipitation, MM = Missing Value Source: Averaged Metar Reports

Daily Weather History Graph

Daily Weather History Graph

Search for Another Location

Airport or City:

Trip Planner

Search our weather history database for the weather conditions in past years. The results will help you decide how hot, cold, wet, or windy it might be!

Date:

Astronomy

Nov. 06, 2012 Rise Set
Actual Time 5:57 AM EET 4:10 PM EET
Civil Twilight 5:28 AM EET 4:39 PM EET
Nautical Twilight 4:56 AM EET 5:12 PM EET
Astronomical Twilight 4:23 AM EET 5:44 PM EET
Moon 10:27 PM EET (11/6) 11:38 AM EET (11/6)
Length of Visible Light 11h 10m
Length of Day
10h 12m
Waning Gibbous, 56% of the Moon is Illuminated
Nov 6
Waning Gibbous
Nov 7
Last Quarter
Nov 14
New
Nov 20
First Quarter
Nov 28
Full

Hourly Weather History & Observations

Time (EET) Temp. Dew Point Humidity Pressure Visibility Wind Dir Wind Speed Gust Speed Precip Events Conditions
12:20 AM 69.8 °F 44.6 °F 40% 29.92 in - SSE 3.5 mph - N/A   Clear
12:50 AM 69.8 °F 46.4 °F 43% 29.89 in - ESE 5.8 mph - N/A   Clear
1:20 AM 75.2 °F 41.0 °F 29% 29.89 in - SSE 6.9 mph - N/A   Clear
1:50 AM 75.2 °F 39.2 °F 27% 29.89 in - South 11.5 mph - N/A   Clear
2:00 AM 75 °F 39 °F 17% 29.89 in 12 mi South 11.5 mph - -  
2:20 AM 77.0 °F 39.2 °F 26% 29.86 in - SSW 19.6 mph - N/A   Clear
2:50 AM 77.0 °F 39.2 °F 26% 29.86 in - SSW 20.7 mph - N/A   Clear
3:20 AM 77.0 °F 39.2 °F 26% 29.86 in - SSW 20.7 mph - N/A   Clear
3:50 AM 77.0 °F 39.2 °F 26% 29.86 in - SSW 19.6 mph - N/A   Clear
4:20 AM 77.0 °F 37.4 °F 24% 29.86 in - SSW 23.0 mph - N/A   Clear
4:50 AM 77.0 °F 39.2 °F 26% 29.86 in - SSW 23.0 mph - N/A   Clear
5:20 AM 77.0 °F 39.2 °F 26% 29.86 in - SSW 21.9 mph - N/A   Clear
5:50 AM 77.0 °F 37.4 °F 24% 29.86 in - SSW 23.0 mph - N/A   Clear
6:20 AM 77.0 °F 39.2 °F 26% 29.86 in - SSW 21.9 mph - N/A   Clear
6:50 AM 77.0 °F 39.2 °F 26% 29.86 in 6.2 mi SSW 21.9 mph - N/A   Partly Cloudy
7:20 AM 77.0 °F 39.2 °F 26% 29.86 in 6.2 mi SSW 19.6 mph - N/A   Partly Cloudy
7:50 AM 78.8 °F 39.2 °F 24% 29.86 in 6.2 mi SSW 20.7 mph - N/A   Partly Cloudy
8:00 AM 78 °F 38 °F 14% 29.88 in 12 mi SSW 20.7 mph - -   Scattered Clouds
8:20 AM 80.6 °F 39.2 °F 23% 29.86 in 6.2 mi SSW 18.4 mph - N/A   Partly Cloudy
8:50 AM 80.6 °F 39.2 °F 23% 29.86 in 6.2 mi SSW 16.1 mph 28.8 mph N/A   Scattered Clouds
9:20 AM 82.4 °F 37.4 °F 20% 29.86 in 6.2 mi SSW 15.0 mph - N/A   Scattered Clouds
9:50 AM 84.2 °F 37.4 °F 19% 29.86 in 6.2 mi SSW 11.5 mph - N/A   Scattered Clouds
10:20 AM 75.2 °F 59.0 °F 57% 29.86 in 6.2 mi Variable 4.6 mph - N/A   Scattered Clouds
10:50 AM 78.8 °F 57.2 °F 47% 29.86 in 6.2 mi Variable 1.2 mph - N/A   Scattered Clouds
11:20 AM 77.0 °F 59.0 °F 54% 29.86 in 6.2 mi West 8.1 mph - N/A   Scattered Clouds
11:50 AM 75.2 °F 60.8 °F 61% 29.86 in 6.2 mi WNW 5.8 mph - N/A   Scattered Clouds
12:20 PM 73.4 °F 55.4 °F 53% 29.86 in 6.2 mi Variable 1.2 mph - N/A   Scattered Clouds
12:50 PM 75.2 °F 60.8 °F 61% 29.86 in 6.2 mi Variable 1.2 mph - N/A   Scattered Clouds
1:20 PM 78.8 °F 50.0 °F 36% 29.86 in 6.2 mi Calm Calm - N/A   Scattered Clouds
1:50 PM 73.4 °F 55.4 °F 53% 29.86 in 6.2 mi ESE 4.6 mph - N/A   Scattered Clouds
2:00 PM 73 °F 55 °F 44% 29.86 in 12 mi ESE 4.6 mph - -   Partly Cloudy
2:20 PM 75.2 °F 57.2 °F 53% 29.86 in 6.2 mi East 6.9 mph - N/A   Mostly Cloudy
2:50 PM 73.4 °F 62.6 °F 69% 29.86 in 6.2 mi East 5.8 mph - N/A   Mostly Cloudy
3:20 PM 71.6 °F 62.6 °F 73% 29.86 in 6.2 mi East 6.9 mph - N/A   Mostly Cloudy
3:50 PM 71.6 °F 51.8 °F 50% 29.86 in 6.2 mi Calm Calm - N/A   Mostly Cloudy
4:20 PM 71.6 °F 53.6 °F 53% 29.86 in 6.2 mi West 4.6 mph - N/A   Mostly Cloudy
4:50 PM 69.8 °F 46.4 °F 43% 29.89 in 6.2 mi SSW 5.8 mph - N/A   Mostly Cloudy
5:20 PM 71.6 °F 42.8 °F 35% 29.89 in 6.2 mi Variable 3.5 mph - N/A   Mostly Cloudy
5:50 PM 73.4 °F 42.8 °F 33% 29.89 in 6.2 mi SSW 5.8 mph - N/A   Mostly Cloudy
6:20 PM 71.6 °F 42.8 °F 35% 29.89 in 6.2 mi East 4.6 mph - N/A   Mostly Cloudy
6:50 PM 71.6 °F 42.8 °F 35% 29.92 in 6.2 mi West 18.4 mph - N/A   Mostly Cloudy
7:20 PM 75.2 °F 41.0 °F 29% 29.92 in 6.2 mi SW 12.7 mph - N/A   Mostly Cloudy
7:50 PM 73.4 °F 41.0 °F 31% 29.92 in 6.2 mi SW 13.8 mph - N/A   Mostly Cloudy
8:00 PM 74 °F 40 °F 19% 29.94 in 12 mi SW 13.8 mph - -   Partly Cloudy
8:20 PM 73.4 °F 41.0 °F 31% 29.95 in 6.2 mi SW 13.8 mph - N/A   Mostly Cloudy
8:50 PM 75.2 °F 39.2 °F 27% 29.95 in 6.2 mi SW 13.8 mph - N/A   Scattered Clouds
9:20 PM 75.2 °F 39.2 °F 27% 29.95 in 6.2 mi SW 13.8 mph 26.5 mph N/A   Scattered Clouds
9:50 PM 75.2 °F 39.2 °F 27% 29.95 in 6.2 mi SSW 12.7 mph - N/A   Scattered Clouds
10:20 PM 75.2 °F 37.4 °F 25% 29.95 in 6.2 mi SW 12.7 mph - N/A   Scattered Clouds
10:50 PM 75.2 °F 39.2 °F 27% 29.95 in 6.2 mi SW 10.4 mph - N/A   Scattered Clouds
11:20 PM 69.8 °F 41.0 °F 35% 29.98 in 6.2 mi West 12.7 mph - N/A   Scattered Clouds
11:50 PM 71.6 °F 51.8 °F 50% 29.98 in 6.2 mi West 8.1 mph - N/A   Scattered Clouds